• In Russia
  • List of Countries
  • For 7 days
  • Water Temperature
  • Satellite Maps
  • Weather Map
  • Weather Widgets
  • user-avatar
    Login

    Hourly Weather Pontypool

    Today, 22 February, Thursday

    Time Temperature Precipitation Wind Pressure Humidity
    00:00 +1°C° 0 mm 2 mps 753 mmHg 93%
    01:00 +1°C° 0 mm 2 mps 753 mmHg 93%
    02:00 -1°C° 0 mm 2 mps 753 mmHg 94%
    03:00 -1°C° 0 mm 2 mps 752 mmHg 94%
    04:00 -1°C° 0 mm 2 mps 752 mmHg 95%
    05:00 -1°C° 0 mm 2 mps 752 mmHg 95%
    06:00 -1°C° 0 mm 2 mps 752 mmHg 95%
    07:00 -1°C° 0 mm 3 mps 752 mmHg 93%
    08:00 0°C° 0 mm 3 mps 752 mmHg 90%
    09:00 0°C° 0 mm 4 mps 752 mmHg 87%
    10:00 0°C° 0 mm 4 mps 752 mmHg 81%
    11:00 +1°C° 0 mm 4 mps 752 mmHg 75%
    12:00 +3°C° 0 mm 4 mps 752 mmHg 69%
    13:00 +3°C° 0 mm 4 mps 752 mmHg 68%
    14:00 +3°C° 0 mm 4 mps 751 mmHg 67%
    15:00 +3°C° 0 mm 4 mps 751 mmHg 65%
    16:00 +1°C° 0 mm 4 mps 751 mmHg 70%
    17:00 +1°C° 0 mm 3 mps 751 mmHg 74%
    18:00 0°C° 0 mm 3 mps 751 mmHg 79%
    19:00 -1°C° 0 mm 3 mps 751 mmHg 81%
    20:00 -1°C° 0 mm 3 mps 751 mmHg 83%
    21:00 -2°C° 0 mm 3 mps 751 mmHg 85%
    22:00 -2°C° 0 mm 3 mps 751 mmHg 85%
    23:00 -2°C° 0 mm 3 mps 751 mmHg 84%

    Tomorrow, 23 February, Friday

    Time Temperature Precipitation Wind Pressure Humidity
    00:00 -4°C° 0 mm 3 mps 751 mmHg 84%
    01:00 -4°C° 0 mm 3 mps 751 mmHg 84%
    02:00 -4°C° 0 mm 3 mps 751 mmHg 85%
    03:00 -4°C° 0 mm 3 mps 751 mmHg 85%
    04:00 -4°C° 0 mm 3 mps 750 mmHg 86%
    05:00 -4°C° 0 mm 3 mps 750 mmHg 86%
    06:00 -4°C° 0 mm 3 mps 750 mmHg 87%
    07:00 -3°C° 0 mm 4 mps 750 mmHg 81%
    08:00 -2°C° 0 mm 5 mps 750 mmHg 75%
    09:00 -2°C° 0 mm 6 mps 750 mmHg 69%
    10:00 -1°C° 0 mm 6 mps 750 mmHg 65%
    11:00 +1°C° 0 mm 6 mps 750 mmHg 61%
    12:00 +2°C° 0 mm 7 mps 750 mmHg 57%
    13:00 +2°C° 0 mm 6 mps 749 mmHg 57%
    14:00 +3°C° 0 mm 6 mps 749 mmHg 57%
    15:00 +3°C° 0 mm 6 mps 748 mmHg 56%
    16:00 +2°C° 0 mm 6 mps 748 mmHg 61%
    17:00 0°C° 0 mm 5 mps 748 mmHg 66%
    18:00 -1°C° 0 mm 5 mps 748 mmHg 71%
    19:00 -2°C° 0 mm 5 mps 748 mmHg 74%
    20:00 -2°C° 0 mm 5 mps 748 mmHg 77%
    21:00 -4°C° 0 mm 6 mps 748 mmHg 80%
    22:00 -4°C° 0 mm 5 mps 748 mmHg 82%
    23:00 -5°C° 0 mm 5 mps 748 mmHg 84%

    Day after tomorrow, 24 February, Saturday

    Time Temperature Precipitation Wind Pressure Humidity
    00:00 -5°C° 0 mm 5 mps 748 mmHg 86%
    01:00 -5°C° 0 mm 5 mps 748 mmHg 84%
    02:00 -5°C° 0 mm 5 mps 748 mmHg 83%
    03:00 -5°C° 0 mm 5 mps 748 mmHg 81%
    04:00 -6°C° 0 mm 5 mps 748 mmHg 79%
    05:00 -6°C° 0 mm 5 mps 748 mmHg 76%
    06:00 -6°C° 0 mm 5 mps 748 mmHg 74%
    07:00 -5°C° 0 mm 5 mps 748 mmHg 68%
    08:00 -4°C° 0 mm 6 mps 749 mmHg 63%
    09:00 -3°C° 0 mm 6 mps 749 mmHg 57%
    10:00 -2°C° 0 mm 6 mps 749 mmHg 55%
    11:00 -1°C° 0 mm 6 mps 749 mmHg 52%
    12:00 +2°C° 0 mm 6 mps 749 mmHg 49%
    13:00 +2°C° 0 mm 6 mps 749 mmHg 50%
    14:00 +3°C° 0 mm 6 mps 749 mmHg 51%
    15:00 +3°C° 0 mm 7 mps 749 mmHg 52%
    16:00 +2°C° 0 mm 6 mps 749 mmHg 55%
    17:00 -1°C° 0 mm 6 mps 749 mmHg 57%
    18:00 -2°C° 0 mm 6 mps 750 mmHg 60%
    19:00 -3°C° 0 mm 6 mps 750 mmHg 61%
    20:00 -3°C° 0 mm 6 mps 750 mmHg 63%
    21:00 -4°C° 0 mm 6 mps 750 mmHg 64%
    22:00 -4°C° 0 mm 6 mps 751 mmHg 66%
    23:00 -4°C° 0 mm 6 mps 751 mmHg 69%

    25 February, Sunday

    Time Temperature Precipitation Wind Pressure Humidity
    00:00 -4°C° 0 mm 6 mps 751 mmHg 72%
    01:00 -4°C° 0 mm 6 mps 751 mmHg 75%
    02:00 -4°C° 0 mm 6 mps 751 mmHg 77%
    03:00 -4°C° 0 mm 5 mps 751 mmHg 80%
    04:00 -5°C° 0 mm 6 mps 752 mmHg 78%
    05:00 -5°C° 0 mm 6 mps 752 mmHg 76%
    06:00 -5°C° 0 mm 6 mps 752 mmHg 74%
    07:00 -4°C° 0 mm 7 mps 752 mmHg 70%
    08:00 -4°C° 0 mm 7 mps 752 mmHg 65%
    09:00 -4°C° 0 mm 8 mps 753 mmHg 61%
    10:00 -2°C° 0 mm 8 mps 753 mmHg 57%
    11:00 -1°C° 0 mm 8 mps 753 mmHg 53%
    12:00 0°C° 0 mm 8 mps 753 mmHg 49%
    13:00 +2°C° 0 mm 7 mps 753 mmHg 48%
    14:00 +2°C° 0 mm 7 mps 753 mmHg 48%
    15:00 +2°C° 0 mm 7 mps 753 mmHg 47%
    16:00 0°C° 0 mm 7 mps 753 mmHg 50%
    17:00 -2°C° 0 mm 6 mps 754 mmHg 52%
    18:00 -3°C° 0 mm 6 mps 754 mmHg 55%
    19:00 -4°C° 0 mm 6 mps 754 mmHg 57%
    20:00 -5°C° 0 mm 6 mps 754 mmHg 59%
    21:00 -5°C° 0 mm 6 mps 755 mmHg 61%
    22:00 -6°C° 0 mm 6 mps 755 mmHg 62%
    23:00 -6°C° 0 mm 6 mps 755 mmHg 63%

    26 February, Monday

    Time Temperature Precipitation Wind Pressure Humidity
    00:00 -6°C° 0 mm 5 mps 755 mmHg 65%
    01:00 -6°C° 0 mm 5 mps 755 mmHg 66%
    02:00 -7°C° 0 mm 5 mps 755 mmHg 68%
    03:00 -7°C° 0 mm 5 mps 755 mmHg 69%
    04:00 -7°C° 0 mm 5 mps 755 mmHg 70%
    05:00 -7°C° 0 mm 5 mps 755 mmHg 70%
    06:00 -7°C° 0 mm 5 mps 755 mmHg 71%
    07:00 -6°C° 0 mm 5 mps 755 mmHg 67%
    08:00 -5°C° 0 mm 6 mps 755 mmHg 64%
    09:00 -4°C° 0 mm 6 mps 755 mmHg 61%
    10:00 -3°C° 0 mm 7 mps 755 mmHg 57%
    11:00 -2°C° 0 mm 7 mps 755 mmHg 53%
    12:00 -1°C° 0 mm 7 mps 755 mmHg 48%
    13:00 -1°C° 0 mm 7 mps 755 mmHg 48%
    14:00 -1°C° 0 mm 6 mps 754 mmHg 48%
    15:00 -1°C° 0 mm 6 mps 754 mmHg 47%
    16:00 -2°C° 0 mm 6 mps 754 mmHg 51%
    17:00 -2°C° 0 mm 5 mps 754 mmHg 55%
    18:00 -4°C° 0 mm 5 mps 754 mmHg 58%
    19:00 -5°C° 0 mm 5 mps 754 mmHg 62%
    20:00 -5°C° 0 mm 4 mps 754 mmHg 65%
    21:00 -5°C° 0 mm 4 mps 754 mmHg 68%
    22:00 -7°C° 0 mm 4 mps 754 mmHg 72%
    23:00 -7°C° 0 mm 4 mps 754 mmHg 75%

    27 February, Tuesday

    Time Temperature Precipitation Wind Pressure Humidity
    00:00 -7°C° 0 mm 4 mps 753 mmHg 78%
    01:00 -7°C° 0 mm 4 mps 753 mmHg 78%
    02:00 -7°C° 0 mm 4 mps 753 mmHg 79%
    03:00 -8°C° 0 mm 4 mps 753 mmHg 80%
    04:00 -8°C° 0 mm 4 mps 752 mmHg 80%
    05:00 -8°C° 0 mm 4 mps 752 mmHg 80%
    06:00 -8°C° 0 mm 4 mps 752 mmHg 80%
    07:00 -7°C° 0 mm 5 mps 752 mmHg 73%
    08:00 -6°C° 0 mm 5 mps 752 mmHg 67%
    09:00 -5°C° 0 mm 6 mps 752 mmHg 61%
    10:00 -4°C° 0 mm 5 mps 752 mmHg 55%
    11:00 -2°C° 0 mm 5 mps 752 mmHg 48%
    12:00 -1°C° 0 mm 5 mps 752 mmHg 42%
    13:00 -1°C° 0 mm 5 mps 751 mmHg 42%
    14:00 -1°C° 0 mm 5 mps 751 mmHg 42%
    15:00 -1°C° 0 mm 4 mps 751 mmHg 42%
    16:00 -2°C° 0 mm 4 mps 751 mmHg 47%
    17:00 -2°C° 0 mm 3 mps 751 mmHg 52%
    18:00 -5°C° 0 mm 3 mps 751 mmHg 58%
    19:00 -4°C° 0 mm 2 mps 751 mmHg 61%
    20:00 -5°C° 0 mm 2 mps 751 mmHg 64%
    21:00 -5°C° 0 mm 2 mps 751 mmHg 67%
    22:00 -5°C° 0 mm 2 mps 751 mmHg 66%
    23:00 -5°C° 0 mm 2 mps 750 mmHg 65%
    Show more